N750XC LFRD-LSZB

Flight info

Callsign N750XC
Flight time 1h 0m
Altitude 39000
Route EKRAS UN491 POGZI DCT GELTA DCT MANAG DCT MOTUK DCT LUL Y112 HR T626 LUTIX T627 BIRKI
Aircraft C750/M-SBDE3FGHRWXY/S

Departure

Time 2026-05-07 11:13
Airport Dinard Pleurtuit Saint-Malo airport (LFRD)

Arrival

Time 2026-05-07 12:14
Airport Bern Airport (LSZB)
Time Latitude Longitude Altitude Speed Heading
2026-05-07 11:02 48.58975 -2.07741 226 ft 0 kts 215°
2026-05-07 11:11 48.58974 -2.07741 226 ft 0 kts 215°
2026-05-07 11:11 48.58977 -2.07775 226 ft 5 kts 315°
2026-05-07 11:11 48.59024 -2.07788 226 ft 11 kts 350°
2026-05-07 11:11 48.59099 -2.07808 226 ft 11 kts 350°
2026-05-07 11:12 48.59172 -2.07826 226 ft 10 kts 350°
2026-05-07 11:12 48.59209 -2.07897 226 ft 9 kts 262°
2026-05-07 11:12 48.59198 -2.07993 226 ft 9 kts 260°
2026-05-07 11:12 48.59187 -2.08091 225 ft 7 kts 259°
2026-05-07 11:13 48.59173 -2.08102 226 ft 0 kts 171°
2026-05-07 11:13 48.59084 -2.08078 225 ft 52 kts 170°
2026-05-07 11:13 48.58336 -2.07880 313 ft 139 kts 168°
2026-05-07 11:13 48.57392 -2.07651 1139 ft 140 kts 169°
2026-05-07 11:14 48.56382 -2.07400 1919 ft 156 kts 169°
2026-05-07 11:14 48.55225 -2.07341 2588 ft 180 kts 191°
2026-05-07 11:14 48.54092 -2.08224 3417 ft 189 kts 218°
2026-05-07 11:14 48.53343 -2.09947 4333 ft 208 kts 248°
2026-05-07 11:15 48.53329 -2.12195 5300 ft 227 kts 283°
2026-05-07 11:15 48.54241 -2.14169 6331 ft 237 kts 321°
2026-05-07 11:15 48.55815 -2.14937 7362 ft 244 kts 358°
2026-05-07 11:15 48.57508 -2.14793 8623 ft 244 kts
2026-05-07 11:16 48.59189 -2.14550 9913 ft 241 kts
2026-05-07 11:16 48.60848 -2.14352 11021 ft 238 kts
2026-05-07 11:16 48.62489 -2.14175 12089 ft 235 kts
2026-05-07 11:16 48.64115 -2.13991 13133 ft 236 kts
2026-05-07 11:17 48.65834 -2.13799 13622 ft 261 kts
2026-05-07 11:17 48.67745 -2.13584 13960 ft 289 kts
2026-05-07 11:17 48.69851 -2.13344 14232 ft 317 kts
2026-05-07 11:17 48.72108 -2.13081 14423 ft 343 kts
2026-05-07 11:18 48.74515 -2.12167 14368 ft 376 kts 24°
2026-05-07 11:18 48.76539 -2.09584 14855 ft 385 kts 52°
2026-05-07 11:18 48.77778 -2.06012 15655 ft 384 kts 69°
2026-05-07 11:18 48.78606 -2.02142 16363 ft 387 kts 75°
2026-05-07 11:19 48.79358 -1.98208 17123 ft 391 kts 74°
2026-05-07 11:19 48.80228 -1.94273 17899 ft 395 kts 71°
2026-05-07 11:19 48.81159 -1.90338 18652 ft 398 kts 71°
2026-05-07 11:19 48.82047 -1.86321 19363 ft 402 kts 73°
2026-05-07 11:20 48.82890 -1.82313 20057 ft 406 kts 73°
2026-05-07 11:20 48.83780 -1.78215 20773 ft 410 kts 72°
2026-05-07 11:20 48.84701 -1.74093 21475 ft 415 kts 72°
2026-05-07 11:20 48.85617 -1.69920 22156 ft 419 kts 72°
2026-05-07 11:21 48.86526 -1.65698 22836 ft 423 kts 72°
2026-05-07 11:21 48.87450 -1.61423 23517 ft 427 kts 72°
2026-05-07 11:21 48.88390 -1.57111 24089 ft 431 kts 72°
2026-05-07 11:21 48.89313 -1.52756 24641 ft 435 kts 75°
2026-05-07 11:22 48.89770 -1.48207 25157 ft 437 kts 88°
2026-05-07 11:22 48.89678 -1.43594 25734 ft 439 kts 95°
2026-05-07 11:22 48.89456 -1.38949 26310 ft 442 kts 95°
2026-05-07 11:22 48.89243 -1.34262 26885 ft 446 kts 95°
2026-05-07 11:23 48.89038 -1.29535 27456 ft 450 kts 95°
2026-05-07 11:23 48.88823 -1.24766 28012 ft 454 kts 95°
2026-05-07 11:23 48.88597 -1.19956 28596 ft 458 kts 95°
2026-05-07 11:23 48.88369 -1.15106 29169 ft 462 kts 95°
2026-05-07 11:24 48.88142 -1.10227 29724 ft 466 kts 95°
2026-05-07 11:24 48.87913 -1.05352 30240 ft 470 kts 95°
2026-05-07 11:24 48.87675 -1.00385 30705 ft 473 kts 95°
2026-05-07 11:24 48.87432 -0.95377 31224 ft 475 kts 95°
2026-05-07 11:25 48.87190 -0.90392 31942 ft 472 kts 95°
2026-05-07 11:25 48.86947 -0.85430 32612 ft 471 kts 95°
2026-05-07 11:25 48.86701 -0.80469 33271 ft 470 kts 95°
2026-05-07 11:25 48.86453 -0.75521 33954 ft 469 kts 96°
2026-05-07 11:26 48.86204 -0.70575 34536 ft 469 kts 96°
2026-05-07 11:26 48.85954 -0.65641 35047 ft 469 kts 96°
2026-05-07 11:26 48.85699 -0.60683 35571 ft 470 kts 96°
2026-05-07 11:26 48.85444 -0.55742 36112 ft 470 kts 96°
2026-05-07 11:27 48.85189 -0.50852 36673 ft 471 kts 96°
2026-05-07 11:27 48.84929 -0.45901 37246 ft 471 kts 96°
2026-05-07 11:27 48.84666 -0.40937 37821 ft 471 kts 96°
2026-05-07 11:27 48.84400 -0.35969 38410 ft 472 kts 96°
2026-05-07 11:28 48.84133 -0.31001 38945 ft 472 kts 96°
2026-05-07 11:28 48.83861 -0.25997 39057 ft 482 kts 96°
2026-05-07 11:28 48.83575 -0.20863 39061 ft 494 kts 96°
2026-05-07 11:28 48.83266 -0.15608 39068 ft 506 kts 96°
2026-05-07 11:29 48.82625 -0.04775 39074 ft 523 kts 96°
2026-05-07 11:29 48.81967 0.06337 39075 ft 533 kts 96°
2026-05-07 11:30 48.81284 0.17568 39074 ft 535 kts 96°
2026-05-07 11:30 48.80597 0.28751 39074 ft 535 kts 96°
2026-05-07 11:31 48.79891 0.40010 39068 ft 535 kts 96°
2026-05-07 11:31 48.79102 0.51233 39059 ft 536 kts 100°
2026-05-07 11:32 48.76767 0.67790 39057 ft 535 kts 101°
2026-05-07 11:33 48.75513 0.78920 39060 ft 535 kts 102°
2026-05-07 11:33 48.73979 0.89941 39062 ft 535 kts 102°
2026-05-07 11:34 48.72619 1.01028 39062 ft 535 kts 102°
2026-05-07 11:34 48.71128 1.12064 39061 ft 535 kts 103°
2026-05-07 11:35 48.69698 1.23129 39058 ft 535 kts 102°
2026-05-07 11:35 48.68218 1.34167 39055 ft 535 kts 103°
2026-05-07 11:36 48.66757 1.45131 39050 ft 535 kts 102°
2026-05-07 11:36 48.65268 1.56164 39051 ft 535 kts 103°
2026-05-07 11:37 48.64012 1.65394 39034 ft 535 kts 103°
2026-05-07 11:37 48.62504 1.76458 39042 ft 538 kts 103°
2026-05-07 11:38 48.60987 1.87444 39043 ft 537 kts 103°
2026-05-07 11:38 48.59455 1.98496 39041 ft 537 kts 103°
2026-05-07 11:39 48.57910 2.09537 39046 ft 537 kts 103°
2026-05-07 11:39 48.56354 2.20585 39042 ft 538 kts 103°
2026-05-07 11:40 48.54787 2.31620 39046 ft 537 kts 103°
2026-05-07 11:40 48.53212 2.42639 39046 ft 537 kts 103°
2026-05-07 11:41 48.51624 2.53663 39037 ft 538 kts 103°
2026-05-07 11:41 48.50024 2.64692 39052 ft 538 kts 103°
2026-05-07 11:42 48.48412 2.75724 39058 ft 538 kts 103°
2026-05-07 11:42 48.46802 2.86667 39057 ft 538 kts 104°
2026-05-07 11:43 48.45171 2.97670 39058 ft 538 kts 104°
2026-05-07 11:43 48.43528 3.08673 39045 ft 539 kts 104°
2026-05-07 11:44 48.41878 3.19659 39054 ft 538 kts 104°
2026-05-07 11:44 48.40214 3.30652 39055 ft 538 kts 104°
2026-05-07 11:45 48.38538 3.41645 39045 ft 538 kts 104°
2026-05-07 11:45 48.36849 3.52648 39062 ft 540 kts 104°
2026-05-07 11:46 48.35161 3.63579 39064 ft 540 kts 104°
2026-05-07 11:46 48.33449 3.74577 39062 ft 540 kts 104°
2026-05-07 11:47 48.31730 3.85558 39071 ft 540 kts 104°
2026-05-07 11:47 48.30000 3.96529 39071 ft 540 kts 104°
2026-05-07 11:48 48.28258 4.07499 39072 ft 540 kts 104°
2026-05-07 11:48 48.26509 4.18444 39072 ft 540 kts 104°
2026-05-07 11:49 48.24744 4.29417 39069 ft 540 kts 104°
2026-05-07 11:49 48.22971 4.40365 39069 ft 540 kts 105°
2026-05-07 11:50 48.21188 4.51304 39064 ft 540 kts 105°
2026-05-07 11:50 48.19394 4.62240 39064 ft 540 kts 105°
2026-05-07 11:51 48.17590 4.73165 39057 ft 540 kts 105°
2026-05-07 11:51 48.15786 4.84024 39056 ft 541 kts 105°
2026-05-07 11:52 48.13958 4.94953 39057 ft 541 kts 105°
2026-05-07 11:52 48.12121 5.05873 39055 ft 541 kts 105°
2026-05-07 11:53 48.10121 5.16721 39046 ft 541 kts 111°
2026-05-07 11:53 48.06749 5.26735 39055 ft 539 kts 122°
2026-05-07 11:53 48.04850 5.31513 38823 ft 526 kts 122°
2026-05-07 11:54 48.03141 5.36227 38062 ft 506 kts 118°
2026-05-07 11:54 48.01593 5.40832 37410 ft 486 kts 118°
2026-05-07 11:54 48.00026 5.45211 36782 ft 471 kts 121°
2026-05-07 11:54 47.98418 5.49434 36171 ft 465 kts 121°
2026-05-07 11:55 47.96851 5.53661 35564 ft 468 kts 120°
2026-05-07 11:55 47.95320 5.57969 34947 ft 472 kts 119°
2026-05-07 11:55 47.93783 5.62247 34331 ft 474 kts 119°
2026-05-07 11:55 47.92190 5.66546 33659 ft 474 kts 120°
2026-05-07 11:56 47.90593 5.70850 33031 ft 474 kts 119°
2026-05-07 11:56 47.89018 5.75167 32404 ft 475 kts 119°
2026-05-07 11:56 47.87440 5.79497 31778 ft 475 kts 119°
2026-05-07 11:56 47.85850 5.83807 31151 ft 475 kts 119°
2026-05-07 11:57 47.84244 5.88132 30520 ft 477 kts 119°
2026-05-07 11:57 47.82652 5.92439 29860 ft 471 kts 119°
2026-05-07 11:57 47.81098 5.96655 29235 ft 461 kts 119°
2026-05-07 11:57 47.79554 6.00823 28630 ft 458 kts 120°
2026-05-07 11:58 47.78017 6.04950 28023 ft 454 kts 120°
2026-05-07 11:58 47.76496 6.09037 27433 ft 450 kts 120°
2026-05-07 11:58 47.74986 6.13095 26840 ft 447 kts 120°
2026-05-07 11:58 47.73485 6.17119 26254 ft 443 kts 120°
2026-05-07 11:59 47.71997 6.21098 25675 ft 439 kts 120°
2026-05-07 11:59 47.70520 6.25044 25093 ft 435 kts 120°
2026-05-07 11:59 47.69062 6.28956 24525 ft 431 kts 120°
2026-05-07 11:59 47.67845 6.32951 23966 ft 429 kts 114°
2026-05-07 12:00 47.66690 6.37022 23366 ft 426 kts 114°
2026-05-07 12:00 47.65513 6.41093 22793 ft 422 kts 114°
2026-05-07 12:00 47.64368 6.45019 22244 ft 419 kts 114°
2026-05-07 12:00 47.63222 6.48976 21694 ft 416 kts 114°
2026-05-07 12:01 47.62086 6.52912 21143 ft 413 kts 114°
2026-05-07 12:01 47.60954 6.56817 20599 ft 410 kts 114°
2026-05-07 12:01 47.59828 6.60680 20057 ft 407 kts 114°
2026-05-07 12:01 47.58707 6.64523 19529 ft 404 kts 114°
2026-05-07 12:02 47.57597 6.68334 18998 ft 401 kts 114°
2026-05-07 12:02 47.56477 6.72099 18469 ft 399 kts 116°
2026-05-07 12:02 47.54913 6.75446 17899 ft 392 kts 132°
2026-05-07 12:02 47.53113 6.78481 17408 ft 392 kts 133°
2026-05-07 12:03 47.51330 6.81513 16888 ft 388 kts 132°
2026-05-07 12:03 47.49590 6.84537 16388 ft 385 kts 132°
2026-05-07 12:03 47.47852 6.87539 15881 ft 383 kts 132°
2026-05-07 12:03 47.46116 6.90500 15381 ft 379 kts 133°
2026-05-07 12:04 47.44391 6.93441 14882 ft 378 kts 133°
2026-05-07 12:04 47.42705 6.96329 14396 ft 374 kts 132°
2026-05-07 12:04 47.40989 6.99268 13898 ft 371 kts 132°
2026-05-07 12:04 47.39326 7.02104 13384 ft 369 kts 133°
2026-05-07 12:05 47.37586 7.04858 12886 ft 365 kts 137°
2026-05-07 12:05 47.35818 7.07541 12416 ft 363 kts 135°
2026-05-07 12:05 47.34107 7.10245 11944 ft 358 kts 135°
2026-05-07 12:05 47.32394 7.12892 11466 ft 356 kts 136°
2026-05-07 12:06 47.30692 7.15459 11006 ft 338 kts 136°
2026-05-07 12:06 47.29122 7.17849 10599 ft 313 kts 136°
2026-05-07 12:06 47.27662 7.20090 10212 ft 295 kts 136°
2026-05-07 12:06 47.26260 7.22230 9829 ft 288 kts 137°
2026-05-07 12:07 47.24867 7.24344 9444 ft 287 kts 137°
2026-05-07 12:07 47.23480 7.26450 9064 ft 287 kts 136°
2026-05-07 12:07 47.22088 7.28570 8683 ft 287 kts 136°
2026-05-07 12:07 47.20702 7.30677 8308 ft 287 kts 136°
2026-05-07 12:08 47.19315 7.32785 7931 ft 285 kts 136°
2026-05-07 12:08 47.17943 7.34865 7562 ft 283 kts 136°
2026-05-07 12:08 47.16566 7.36919 7185 ft 280 kts 138°
2026-05-07 12:08 47.15019 7.38586 6821 ft 278 kts 148°
2026-05-07 12:09 47.13417 7.40159 6460 ft 272 kts 148°
2026-05-07 12:09 47.11887 7.41668 6093 ft 257 kts 150°
2026-05-07 12:09 47.10260 7.42448 5693 ft 241 kts 179°
2026-05-07 12:09 47.08660 7.42115 5414 ft 229 kts 202°
2026-05-07 12:10 47.07191 7.41218 5177 ft 229 kts 205°
2026-05-07 12:10 47.05708 7.40314 4889 ft 231 kts 204°
2026-05-07 12:10 47.04253 7.39437 4570 ft 218 kts 204°
2026-05-07 12:10 47.02886 7.38608 4279 ft 209 kts 204°
2026-05-07 12:11 47.01473 7.38207 3898 ft 211 kts 175°
2026-05-07 12:11 47.00205 7.39015 3828 ft 190 kts 145°
2026-05-07 12:11 46.99202 7.40202 3907 ft 186 kts 142°
2026-05-07 12:11 46.98224 7.41394 3969 ft 175 kts 141°
2026-05-07 12:12 46.97280 7.42550 3556 ft 173 kts 141°
2026-05-07 12:12 46.96427 7.43595 3239 ft 149 kts 140°
2026-05-07 12:12 46.95677 7.44509 2972 ft 135 kts 140°
2026-05-07 12:12 46.94962 7.45363 2772 ft 131 kts 139°
2026-05-07 12:13 46.94257 7.46218 2555 ft 132 kts 139°
2026-05-07 12:13 46.93581 7.47047 2343 ft 132 kts 139°
2026-05-07 12:13 46.92857 7.47939 2069 ft 128 kts 139°
2026-05-07 12:13 46.92187 7.48768 1822 ft 125 kts 137°
2026-05-07 12:14 46.91524 7.49579 1679 ft 119 kts 139°
2026-05-07 12:14 46.91048 7.50160 1711 ft 58 kts 140°
2026-05-07 12:14 46.90825 7.50431 1700 ft 15 kts 141°
2026-05-07 12:14 46.90751 7.50524 1717 ft 9 kts 127°
2026-05-07 12:15 46.90725 7.50568 1681 ft 3 kts 201°
2026-05-07 12:15 46.90743 7.50530 1687 ft 9 kts 320°
2026-05-07 12:15 46.90807 7.50454 1692 ft 13 kts 320°
2026-05-07 12:15 46.90873 7.50374 1706 ft 10 kts 320°
2026-05-07 12:16 46.90918 7.50377 1702 ft 5 kts 51°
2026-05-07 12:16 46.90947 7.50413 1698 ft 8 kts 18°
2026-05-07 12:16 46.90988 7.50378 1694 ft 7 kts 320°
2026-05-07 12:16 46.91040 7.50322 1704 ft 11 kts 320°
2026-05-07 12:17 46.91096 7.50252 1708 ft 10 kts 320°
2026-05-07 12:17 46.91150 7.50184 1701 ft 10 kts 319°
2026-05-07 12:17 46.91203 7.50115 1690 ft 10 kts 318°
2026-05-07 12:17 46.91253 7.50054 1704 ft 9 kts 319°
2026-05-07 12:18 46.91285 7.50025 1704 ft 4 kts
2026-05-07 12:18 46.91300 7.50058 1695 ft 5 kts 64°
2026-05-07 12:18 46.91311 7.50094 1703 ft 2 kts 82°
2026-05-07 12:18 46.91310 7.50099 1699 ft 0 kts 100°